Location: Central Falls
(41.8900°N, 71.3929°W)
Time: 07:30:09
(UTC+00:00)

Tiros 1 despin weight - Pass Details

Date: 06 December 2023
Orbit: 581 x 624 km, 48.2° (Epoch: 29 February)

Event Time Altitude Azimuth Distance (km) Brightness Sun altitude
Rises 03:21:44 0° 297° (WNW) 2,798 - -65.1°
Reaches altitude 10° 03:24:01 10° 299° (WNW) 1,898 - -65.4°
Maximum altitude 03:28:21 72° 24° (NNE) 615 - -65.9°
Drops below altitude 10° 03:32:42 10° 110° (ESE) 1,907 - -66.4°
Sets 03:35:00 0° 112° (ESE) 2,812 - -66.7°
